Terug naar catalogus

COSMOS 1275 DEB

ActiefPO
NORAD 12724·DEBRIS·🇷🇺 Russia

Gelanceerd Jun 4, 1981 vanaf Plesetsk Cosmodrome

Loading…

Volgende Passages (komende 24 uur)

TLE

VersSource: Space-Track

Epoch: Sep 14, 2026, 05:56 UTC

1 12724U 81053BR  26257.24773259  .00000704  00000-0  39756-3 0  9998
2 12724  82.9344 186.3407 0017312 325.2579 187.3347 14.08870728290542

Volg COSMOS 1275 DEB in realtime met AllMySat

Download on the App Store